Showing default

COSMOS 1989 (ETALON 1), 19751

Orbit data source: Space-Track

COSMOS 1989 (ETALON 1), 19751 is a payload satellite owned by NPO PM (CIS) in MEO that was launched on Tue, 10 Jan 1989 UTC via a PROTON-K/DM-2 launch vehicle from the Tyuratam Missile And Space Complex (TTMTR). Payload-class satellites include a variety of spacecraft equipped with specific instruments for various scientific and technological missions. These include communications satellites like Starlink; space stations such as the ISS; scientific satellites like the Hubble; Earth observation satellites from companies like Planet Labs, Umbra, and HawkEye 360; GPS; miniature CubeSats for education and research; and military/defense satellites.

Loading next visibility...
Identifier
19751, 1989-001C
Orbit
MEO
Country
Flag of CISCIS
Related business
Manufacturer
OAZ?
Mission
Operational Defense Geodetic
Bus & Motor
ETALON, Unknown motor
Mass
1,230 kg wet, 1,230 kg dry
Launch date (UTC)
1989-01-10 (37 years ago)
Launch vehicle
PROTON-K/DM-2
Launch site
Tyuratam Missile And Space Complex (TTMTR)
Object type
Payload
Rocket body
Debris
Shape & HBR
Sphere, 0.6 m
Radar Cross Section
1.307 m², Large (>1 m²)

Expand to show TLE details & history
Last TLE update: 1 day ago

TLE from 1 day ago
0 COSMOS 1989 (ETALON 1)
1 19751U 89001C   25256.91173513  .00000028  00000-0  00000-0 0  9991
2 19751  64.7847  81.6546 0023417 216.7736 145.6978  2.13156016285482
Epoch: 2025-09-13T21:52Z
TLE epoch observation values (Epoch: 2025-09-13T21:52:53.915Z)
Latitude
2.33163°
Longitude
121.38441°
Altitude
19,175.167 km
Speed
3.946 km/s
True Right ascension
05h 30m 59s
True Declination
2° 19' 40"
Sunlit
Object was in daylight at epoch
Visualization orbit readout
Latitude
Unknown
Longitude
Unknown
Altitude
Unknown
Speed
Unknown
Apparent Right ascension
Unknown
Apparent Declination
Unknown
Sunlit
N/A
Visualization observer readout
Local Sidereal Time
02:05:49
Azimuth
Unknown
Elevation
Unknown
Doppler factor
Unknown
Orbital elements
Apogee altitude
19,184.921 km
Perigee altitude
19,065.479 km
Semi-major axis
25,503.337 km
Eccentricity
0.00234
Inclination
64.7847°
RAAN
81.6546°
Arg. of periapsis
216.7736°
True anomaly
145.84866°
Mean anomaly
145.6978°
Eccentric anomaly
145.77327°
Mean motion
0.5329 °/min
Orbital period
675.55 mins
BSTAR
0
Loading maneuver chart data...
Computing Atmospheric mass density...
Loading historical data...
Loading historical data...
Loading historical data...
Loading historical data...
Loading historical data...
Loading historical data...
Loading historical data...

Documentation

Showing up to 5 results
|